GEFSSGP_con_probscp_348.txt.gz
Probability
1 1 0 0 0 0 0 0 0 0 0 0 0 0 0 0 0 0 0 0 0 0 0 1 2 1 1 3 5 3 2 3 2 1 0 0 0 0 0 0 0 0 0 0 0 0 1 1 1
1 0 0 0 0 0 0 0 0 0 0 0 0 0 0 0 0 0 0 0 0 0 0 1 2 2 2 3 4 3 3 3 1 0 0 0 0 0 0 0 0 0 0 0 0 0 0 0 0
0 0 0 0 0 0 0 0 0 0 0 0 0 0 0 0 0 0 0 0 0 0 0 1 2 3 3 3 3 2 1 1 0 0 0 0 0 0 0 0 0 0 0 0 0 0 0 0 0
0 1 1 0 0 0 0 0 0 0 0 0 0 0 0 0 0 0 0 0 0 0 0 1 3 4 4 3 2 1 0 0 0 0 0 0 0 0 0 0 0 0 0 0 0 0 0 0 0
1 2 1 0 0 0 0 0 0 0 0 0 0 0 0 0 0 0 0 0 0 0 0 1 4 6 5 3 1 1 0 0 0 0 0 0 0 1 1 0 0 0 0 0 0 0 0 0 0
2 2 2 1 0 0 0 0 0 0 0 0 0 0 0 0 0 0 0 0 0 0 0 2 5 7 5 2 1 1 1 1 1 1 0 0 1 2 2 1 0 0 0 0 0 0 0 0 0
3 2 2 1 0 0 0 0 0 0 0 0 0 0 0 0 0 0 0 0 0 0 0 1 4 5 4 2 1 1 1 2 2 2 1 1 2 3 2 1 0 0 0 0 0 0 0 0 0
4 2 1 1 0 0 0 0 0 0 1 1 0 0 0 0 0 0 0 0 0 0 0 1 2 3 2 2 2 2 2 2 3 2 2 1 1 2 2 1 0 0 0 0 0 0 0 1 1
6 3 1 1 0 0 0 0 0 1 2 2 1 1 1 0 0 0 0 0 0 0 0 0 1 1 0 1 1 1 1 1 2 2 2 1 0 1 1 0 0 0 1 0 0 0 1 2 3
6 4 2 1 0 0 0 0 0 1 1 2 2 2 1 0 0 0 0 0 0 0 0 0 0 0 0 0 0 0 0 1 2 3 2 0 0 0 0 0 0 0 0 0 0 0 2 3 4
6 4 2 1 0 0 0 0 0 0 1 1 3 3 1 0 0 0 0 0 0 0 0 0 0 0 0 0 0 0 0 1 2 3 2 0 0 0 0 0 0 0 0 0 0 0 1 3 3
5 3 2 1 0 0 0 0 0 0 1 2 3 2 1 0 0 0 0 0 0 0 0 0 0 0 0 0 0 0 0 0 1 2 1 0 0 0 0 1 1 1 1 1 0 0 1 2 3
2 1 1 0 0 0 0 0 1 1 2 3 3 2 1 0 0 0 0 0 0 0 0 0 0 0 0 0 0 0 0 0 0 0 0 0 0 0 1 2 2 2 2 1 0 0 1 1 1
1 0 0 0 0 0 0 0 1 2 2 2 2 1 0 0 0 0 1 1 2 1 0 0 0 0 0 0 0 0 0 0 0 0 0 1 1 2 2 3 3 2 1 1 0 0 0 0 0
0 0 0 0 0 0 0 0 1 2 2 2 1 0 0 0 0 1 2 3 4 3 1 0 0 0 0 0 0 0 0 0 0 0 0 1 3 4 3 2 1 1 0 0 0 0 0 0 0
0 0 0 0 0 0 1 1 1 2 2 2 1 0 0 0 0 1 2 3 4 4 2 0 0 0 0 0 0 0 0 0 0 0 0 1 3 3 2 1 0 0 0 0 0 0 0 0 0
0 0 0 0 0 1 2 2 2 2 2 1 1 0 0 0 0 0 1 1 2 3 2 1 0 0 0 0 0 0 0 0 0 0 0 1 2 1 0 0 0 0 0 0 0 0 0 0 0
0 0 0 0 0 1 2 2 2 2 1 0 0 0 0 0 0 0 0 0 1 2 2 1 0 0 0 0 0 0 0 0 0 0 0 0 0 0 1 1 0 0 0 0 0 0 0 0 0
0 0 0 0 0 1 1 1 1 1 1 0 0 1 1 1 0 0 0 0 1 2 2 1 0 0 0 0 0 0 0 0 0 0 0 0 0 1 2 2 1 1 0 0 0 0 0 0 0
0 0 0 0 0 0 0 0 0 0 1 1 1 1 1 1 0 0 1 0 1 2 2 1 0 0 0 0 0 1 1 0 0 0 0 0 0 1 2 3 3 2 1 0 0 0 0 0 0
0 0 0 0 0 0 0 0 0 0 0 0 0 0 0 0 0 0 0 0 0 1 2 2 1 0 0 1 1 2 2 1 0 0 0 0 1 1 3 3 3 3 1 0 0 0 0 0 1
0 0 0 0 0 0 0 0 0 0 0 0 0 0 0 1 1 0 0 0 0 0 1 2 1 1 1 2 3 3 3 2 1 0 0 0 1 2 3 3 3 3 2 0 0 0 1 2 3
1 1 0 0 0 0 0 0 0 0 0 0 0 0 1 3 3 1 0 0 0 0 1 2 3 2 3 3 3 3 3 3 2 1 1 1 2 3 3 3 3 3 1 0 0 1 2 2 3
0 0 0 0 0 0 0 0 0 0 0 0 0 0 1 3 3 2 1 1 1 1 1 3 3 3 4 4 4 3 3 3 3 3 2 2 3 3 3 3 3 2 1 0 1 3 2 1 1
0 0 0 0 0 0 0 0 0 0 0 1 1 1 0 1 2 2 3 3 3 2 3 4 4 3 3 4 3 3 3 3 3 3 3 3 3 3 3 2 2 1 0 1 2 2 1 0 0
0 0 0 0 0 0 0 0 0 0 1 1 2 1 1 0 1 1 3 4 4 3 4 5 5 4 3 3 3 3 3 3 3 3 3 3 3 3 2 1 1 0 1 2 2 1 0 0 1
0 0 0 0 0 0 0 0 0 1 2 2 2 2 2 1 0 0 1 3 3 3 4 6 6 5 4 3 3 3 3 3 4 4 3 3 3 3 2 1 0 1 2 2 1 1 1 2 3
0 0 0 0 0 0 0 0 0 1 2 3 3 4 3 1 0 0 1 2 3 4 5 6 5 5 5 4 4 4 5 5 6 6 4 3 3 3 3 1 1 2 2 1 1 2 2 2 3
0 0 0 0 0 0 0 0 0 1 2 4 5 6 4 1 0 0 1 2 4 5 5 5 4 5 6 6 5 7 8 8 9 8 5 4 3 3 3 3 3 3 2 1 2 2 2 1 1
0 0 0 0 0 0 0 0 0 1 2 4 6 6 5 2 0 0 0 2 4 5 4 4 4 6 8 8 7 9 10 10 10 8 5 4 3 3 4 5 5 4 2 1 2 2 1 1 1

GEFSSGP_con_probscp_354.txt.gz
Probability
2 1 2 5 6 3 1 0 0 0 0 0 0 0 0 0 0 0 0 0 0 0 0 0 0 2 4 4 2 1 1 1 1 1 0 0 0 0 0 0 0 0 0 1 1 0 0 1 1
2 2 3 5 4 2 0 0 0 0 0 0 0 0 0 0 0 0 0 0 0 0 0 0 1 3 5 4 3 2 2 2 2 2 1 0 0 0 0 0 0 0 0 1 1 0 0 1 1
3 3 4 4 2 0 0 0 0 0 0 0 0 0 0 0 0 0 0 0 0 0 0 0 2 4 5 4 3 3 3 3 3 3 1 0 0 0 0 0 0 0 0 1 1 0 0 1 2
2 4 4 2 1 0 0 0 0 0 0 0 0 0 0 0 0 0 0 0 0 0 0 1 2 4 4 3 2 2 2 2 3 3 2 1 1 0 0 0 0 0 0 0 0 0 0 1 1
3 4 3 1 0 0 0 0 0 0 0 0 0 0 0 0 0 0 0 0 0 0 0 1 2 2 2 1 1 0 1 1 1 3 3 3 2 1 0 0 0 0 0 0 0 0 0 0 0
6 5 2 1 0 0 0 0 0 0 0 0 0 0 0 0 0 0 0 0 0 0 0 1 1 1 0 0 0 0 0 0 1 2 3 3 3 2 1 1 0 0 0 1 2 1 1 0 0
6 4 1 0 0 0 0 0 0 0 0 0 0 0 1 1 1 0 0 0 0 0 0 0 0 0 0 0 1 1 0 0 1 3 4 4 4 3 2 1 1 0 0 2 2 2 2 1 0
4 3 1 0 0 0 0 0 0 0 0 0 0 0 1 2 1 0 0 0 0 0 0 0 0 0 0 0 1 1 1 1 3 6 7 6 4 3 2 1 1 0 0 1 2 1 2 2 1
3 2 1 0 0 0 0 0 0 1 1 1 0 0 1 1 1 0 0 0 0 0 0 0 0 0 0 0 1 1 1 1 4 7 7 6 3 2 2 2 1 0 0 0 0 0 1 2 2
3 2 0 0 0 0 0 0 0 1 2 1 0 0 0 0 0 0 0 0 0 0 0 0 0 0 0 0 0 0 0 2 4 5 5 4 4 4 4 3 3 1 1 1 1 1 2 3 3
2 1 0 0 0 0 0 0 0 0 1 1 0 0 0 0 0 0 0 0 0 0 0 0 0 0 0 0 0 0 1 2 3 2 2 3 5 6 6 6 5 4 3 3 3 4 4 3 3
1 1 0 0 0 0 0 0 0 0 0 0 0 0 0 0 0 1 1 1 1 1 1 0 0 0 0 0 0 0 1 2 2 2 2 4 6 7 7 7 6 5 5 6 6 6 4 3 3
0 0 0 0 0 0 0 0 0 0 0 0 0 0 0 0 1 2 2 3 3 3 2 1 1 1 1 1 1 0 0 1 2 3 4 5 5 6 6 7 6 5 5 6 7 6 3 3 3
0 0 0 0 0 0 0 0 0 0 1 0 0 0 0 0 1 2 3 4 5 5 3 3 3 3 3 3 2 1 0 1 2 4 6 5 4 5 6 6 5 4 3 4 5 4 3 3 3
0 1 1 0 0 0 0 0 0 0 0 0 0 0 0 0 1 2 3 4 5 4 3 4 5 6 6 5 3 1 0 1 3 5 6 5 4 6 7 6 4 3 2 3 4 4 3 3 3
1 1 1 0 0 0 0 0 0 0 0 0 0 0 0 0 1 2 2 3 3 3 3 4 5 7 7 6 4 2 0 1 3 4 5 4 4 5 6 5 5 5 5 4 4 3 3 3 3
0 1 1 0 0 0 0 0 0 0 0 0 0 0 0 0 0 1 1 1 1 1 3 5 6 7 8 9 8 4 1 1 2 2 2 2 2 3 4 4 5 5 6 5 4 3 3 3 3
0 0 0 0 0 0 0 0 0 0 0 0 0 0 0 0 0 0 0 0 0 1 3 6 7 8 9 11 10 6 2 2 2 2 2 3 3 3 4 4 4 4 4 5 4 3 2 3 3
0 0 1 0 0 0 0 0 1 1 1 0 0 0 1 1 1 0 0 0 0 1 3 6 7 9 11 12 11 8 5 4 4 4 5 5 5 5 5 5 4 3 4 4 4 2 1 1 2
0 0 0 0 0 0 0 0 1 1 1 0 0 1 2 2 2 1 0 0 0 1 4 6 8 10 11 12 11 10 9 7 6 6 8 8 7 7 7 5 4 4 4 4 3 2 1 0 1
0 0 0 0 0 0 0 0 1 1 0 0 0 1 2 3 3 3 3 3 3 3 4 7 10 11 12 13 12 13 13 11 9 9 9 9 9 8 7 6 5 5 4 4 4 4 2 1 1
0 0 0 0 0 0 0 1 1 0 0 0 0 1 3 3 4 6 6 7 7 5 4 7 11 13 14 14 14 15 17 15 12 11 10 8 8 6 5 5 6 6 7 6 6 6 6 4 3
0 0 0 0 0 0 1 1 1 1 0 0 0 2 3 3 4 7 8 8 8 5 5 7 11 14 16 16 17 18 17 15 13 11 9 7 5 4 4 5 6 8 9 9 9 9 9 8 6
0 0 0 0 0 0 1 0 1 2 1 0 0 1 2 2 3 6 7 7 6 5 6 8 11 12 14 15 17 18 17 16 14 12 10 8 6 5 5 6 9 10 10 10 10 10 11 10 9
0 0 0 0 0 1 1 1 2 3 1 0 1 2 3 3 4 5 6 6 6 5 6 7 9 10 11 12 15 16 17 17 15 14 13 11 9 8 9 9 10 9 9 9 9 11 11 10 10
0 0 0 0 0 1 2 2 3 3 1 0 1 3 5 6 6 6 6 6 6 5 4 5 8 10 12 13 15 17 19 18 17 18 17 15 11 10 11 11 9 8 8 8 9 10 10 10 10
0 0 0 0 0 0 1 1 3 3 3 2 3 5 6 7 7 7 8 7 6 5 5 5 7 10 13 14 16 20 22 21 22 24 23 19 17 14 14 14 10 8 8 10 10 9 8 8 8
0 0 0 0 0 0 0 0 3 6 6 5 6 5 5 7 8 8 8 7 6 7 7 7 7 9 13 16 18 21 24 25 27 29 29 27 25 23 21 19 13 10 10 12 11 9 7 7 6
0 0 0 0 0 0 0 1 3 7 7 6 5 4 5 7 8 7 7 6 7 8 9 9 8 9 13 18 21 23 24 26 27 30 32 32 31 31 29 24 17 13 12 13 12 10 7 6 6
0 0 0 0 0 0 0 1 4 6 6 4 3 3 4 6 7 7 6 5 6 8 10 11 10 10 13 20 24 24 24 25 26 29 32 33 34 33 31 26 19 14 12 12 12 9 6 5 6

GEFSSGP_con_probscp_360.txt.gz
Probability
8 8 12 17 17 11 3 0 0 0 0 0 0 0 0 0 0 0 0 0 1 2 2 4 6 8 8 9 9 9 8 7 6 5 5 5 4 3 2 0 0 0 0 0 0 0 0 1 2
9 9 12 14 12 6 2 0 0 0 0 0 0 0 0 0 0 0 0 0 0 1 2 3 6 7 7 8 9 8 8 7 5 4 4 4 3 2 2 1 0 0 0 0 0 0 0 1 2
12 12 14 12 6 1 0 0 0 0 0 0 0 0 0 0 0 0 0 0 0 1 3 5 5 5 7 8 8 8 8 7 6 5 4 3 1 1 2 2 1 0 0 0 0 0 0 0 1
16 16 15 10 3 0 0 0 0 0 0 0 0 0 0 0 0 0 0 0 0 2 6 6 5 5 7 9 9 9 9 9 9 8 6 4 1 1 2 3 2 1 1 1 0 0 0 0 0
19 17 12 6 1 0 0 0 0 0 0 0 0 1 1 1 0 0 0 0 0 3 6 7 6 5 6 7 7 8 9 9 10 9 7 4 3 3 3 3 3 3 2 2 1 1 0 1 1
18 15 8 2 0 0 0 0 0 0 0 0 0 2 2 1 1 1 1 0 0 2 5 7 7 7 6 5 5 7 8 8 8 8 6 4 3 4 4 4 4 3 3 3 3 2 1 1 2
15 11 6 2 0 0 0 0 0 0 0 0 0 1 2 2 1 2 1 0 0 1 4 6 6 7 7 7 7 8 8 7 7 6 6 5 5 5 4 4 4 4 3 3 3 2 1 1 2
12 9 4 1 0 0 0 0 1 0 0 0 0 1 2 2 1 2 2 1 1 1 2 4 5 6 7 7 7 9 9 8 6 6 6 7 6 5 4 4 4 4 3 3 3 2 1 0 1
9 7 3 1 0 0 0 0 0 0 0 1 1 2 2 1 1 2 3 3 2 1 0 1 3 5 5 5 6 7 9 8 7 7 8 7 5 4 3 4 5 5 5 4 4 3 1 0 1
4 3 1 0 0 0 0 0 1 1 0 1 2 1 1 1 1 3 3 3 3 1 0 0 2 2 2 3 5 6 8 10 11 10 9 7 5 3 3 5 7 7 6 6 5 4 2 1 1
1 1 0 0 0 0 0 1 2 2 1 1 1 1 0 2 3 3 4 3 3 2 1 0 1 1 2 3 5 5 8 12 13 12 11 10 8 5 4 5 7 7 6 5 5 5 4 2 1
0 0 0 0 0 0 0 1 3 3 2 1 1 0 0 2 3 4 4 4 3 3 2 2 3 4 4 4 3 4 8 13 14 13 13 13 12 9 8 9 9 8 7 7 7 7 6 3 2
0 0 0 0 0 0 1 2 3 3 3 2 1 0 0 1 3 3 4 3 3 3 3 4 6 8 9 7 5 5 9 12 13 13 14 15 14 13 14 14 13 11 10 9 9 8 6 3 3
0 0 0 0 0 0 1 3 4 3 3 2 1 1 1 1 1 2 3 3 2 2 2 5 7 10 12 12 9 8 9 10 12 13 15 16 16 16 17 17 15 13 11 10 9 7 5 3 3
0 0 0 0 0 0 2 4 5 4 3 2 1 2 2 1 0 1 2 3 2 2 3 5 7 11 16 16 13 9 8 8 10 12 15 16 16 17 17 17 15 13 12 11 10 7 5 3 3
0 0 0 0 0 0 1 3 5 4 3 3 2 2 4 2 1 1 2 3 3 4 4 5 6 12 17 18 15 11 9 9 10 13 14 14 15 16 15 15 15 15 15 14 11 7 5 4 4
0 0 1 0 0 0 1 2 3 3 4 5 4 4 6 4 3 3 3 4 5 6 6 5 7 11 14 15 15 14 14 12 12 14 15 15 14 14 13 11 12 15 16 15 11 8 7 6 5
0 0 0 0 0 0 1 2 3 3 4 5 6 8 9 8 5 4 4 5 7 8 8 8 10 13 14 15 15 16 16 16 15 16 17 16 14 13 11 9 9 12 14 14 11 9 8 8 8
0 0 0 0 0 0 1 2 4 4 3 4 8 11 11 8 6 5 5 6 8 10 11 13 15 17 18 18 17 17 17 17 16 16 17 15 13 12 11 10 10 12 13 12 10 9 9 10 10
0 0 0 0 0 0 0 2 4 4 2 4 9 12 11 8 8 9 9 9 10 13 15 17 20 22 20 19 20 20 19 19 17 16 16 15 14 13 13 12 13 14 13 11 9 9 10 10 11
0 0 0 0 0 0 0 1 4 4 3 5 9 12 12 10 10 14 16 14 13 15 17 20 22 23 21 19 20 21 21 20 19 18 18 18 18 17 15 15 15 15 14 13 12 12 12 12 12
0 0 0 0 0 0 0 1 4 6 5 5 9 14 16 14 14 18 20 18 16 16 18 22 25 25 23 22 21 23 23 21 19 18 19 20 21 19 16 15 15 16 15 14 13 12 13 14 15
0 0 0 0 0 0 0 1 4 8 9 8 11 16 19 18 18 20 21 20 18 17 19 24 29 28 26 25 25 24 24 22 19 19 20 21 22 20 15 14 15 16 16 14 13 13 14 15 15
0 0 0 0 0 0 0 1 4 8 12 14 15 17 20 21 22 22 22 22 20 18 20 26 32 32 30 28 27 26 25 24 23 22 20 19 19 20 17 16 18 18 18 17 17 17 17 16 15
0 0 0 0 0 0 0 1 4 9 13 16 18 17 18 21 22 21 21 22 20 18 20 28 34 34 32 30 29 27 25 25 25 24 20 16 16 19 22 23 23 23 22 22 22 22 21 19 17
0 0 0 0 0 0 1 3 6 9 12 14 16 17 17 18 19 19 19 20 19 18 20 26 31 33 32 31 30 27 25 25 25 24 20 18 18 21 27 30 30 28 26 25 25 25 24 22 20
0 0 0 0 0 0 1 4 7 9 10 10 12 14 15 15 16 18 19 19 18 17 18 21 27 32 32 32 30 28 28 28 27 26 24 24 25 27 31 34 34 30 28 28 27 25 23 22 19
0 0 0 0 0 0 1 3 6 7 8 8 9 12 14 13 14 16 16 16 16 15 15 18 24 30 31 31 30 28 30 32 30 28 28 30 31 31 32 35 35 33 31 31 29 26 24 22 20
0 0 0 0 0 0 0 1 3 4 5 8 11 14 14 15 16 16 15 15 15 13 14 18 24 28 30 31 31 31 31 32 31 29 30 33 34 32 32 33 35 35 34 32 30 27 24 22 22
0 0 0 0 0 0 0 1 1 2 4 9 14 15 15 17 20 19 16 15 15 14 15 19 22 26 30 33 35 34 32 30 30 30 31 34 35 34 33 32 33 35 35 32 28 25 23 22 23

GEFSSGP_con_probscp_366.txt.gz
Probability
8 7 6 4 1 0 0 0 0 0 0 0 0 0 0 0 0 0 0 0 0 1 2 5 10 14 13 11 11 11 12 11 9 7 5 5 8 10 7 4 2 3 2 2 1 0 0 0 0
7 7 6 3 1 1 0 0 0 0 0 0 0 0 0 0 0 0 0 0 0 0 1 5 10 14 14 12 11 10 10 10 9 7 5 4 6 8 6 3 2 2 2 1 0 0 0 0 0
8 8 6 3 3 2 1 0 0 0 0 1 1 1 0 1 1 1 1 0 0 0 1 6 11 14 15 14 12 10 9 9 8 6 6 4 5 5 4 2 2 3 2 1 0 0 0 0 0
9 8 5 4 4 2 1 0 0 0 1 2 2 2 1 2 3 3 2 1 0 0 2 7 12 15 16 15 12 10 10 9 7 6 6 6 6 6 4 2 2 2 2 1 0 0 1 1 1
9 6 4 4 3 1 0 0 0 0 1 2 3 3 3 3 5 5 4 2 1 0 1 6 13 16 16 15 14 13 13 13 9 7 8 8 8 7 4 2 1 2 2 0 0 0 1 2 2
7 5 3 2 1 0 0 0 0 0 1 3 3 3 3 4 6 6 4 3 1 0 1 5 10 13 14 15 15 15 15 14 11 9 10 9 7 5 4 3 3 4 3 1 0 0 1 2 2
5 4 3 1 0 0 0 0 0 0 1 2 3 3 4 5 6 6 4 2 1 0 1 2 5 6 9 11 13 15 15 12 10 10 10 8 5 3 3 5 6 6 4 1 0 0 1 2 2
5 4 3 1 0 0 0 0 0 0 1 1 2 3 4 6 7 7 5 2 1 0 0 1 1 1 3 5 8 11 11 10 9 9 9 7 4 2 2 4 6 6 3 1 0 0 1 3 4
5 4 3 2 0 0 0 0 0 0 0 0 1 3 4 6 8 8 6 3 1 0 0 0 0 0 0 1 3 5 7 7 7 6 6 5 3 1 1 3 6 6 3 1 0 0 1 3 3
4 3 2 1 0 0 0 0 0 1 1 1 3 4 5 6 7 7 5 3 1 0 0 0 0 0 0 0 2 3 4 4 4 3 2 2 1 1 2 3 5 5 4 2 2 2 1 1 1
2 2 1 0 0 0 0 0 0 1 2 4 6 6 7 7 6 6 4 1 0 0 0 0 0 0 0 1 2 3 3 3 3 1 0 0 0 1 1 1 2 3 3 2 2 2 1 0 0
0 0 0 0 1 1 1 1 1 1 3 5 7 7 7 6 6 5 3 1 0 0 0 1 1 1 0 1 3 3 3 4 4 2 1 1 1 2 1 1 1 1 2 2 1 1 1 0 0
0 0 0 1 2 3 3 2 2 3 5 6 6 6 5 5 6 4 3 1 0 0 1 2 2 1 1 1 2 3 4 4 4 3 3 2 3 3 3 2 2 2 2 2 2 1 0 0 0
0 0 0 1 2 3 3 4 3 4 6 6 6 4 3 4 5 4 2 1 0 0 1 2 2 2 1 1 2 3 3 3 4 3 3 4 3 3 3 3 3 3 3 3 2 1 0 0 0
0 0 0 0 1 1 3 4 4 5 7 6 5 3 2 3 4 3 2 1 0 0 0 1 2 2 3 3 3 3 3 3 4 4 5 5 4 4 3 3 3 3 4 3 2 1 0 0 0
0 0 0 0 0 0 1 2 4 7 8 6 4 3 2 3 4 3 1 0 0 0 0 1 2 4 5 6 4 3 3 4 5 6 7 6 5 4 4 3 4 4 4 4 2 1 0 0 0
0 0 0 0 0 0 0 1 3 7 8 5 3 3 3 3 3 4 2 1 0 0 0 1 3 5 7 7 5 4 4 5 6 7 7 6 6 5 5 4 4 4 4 3 3 1 0 0 0
0 0 0 0 0 1 1 2 3 6 8 6 3 3 3 3 3 4 4 3 1 0 1 3 4 6 8 8 6 5 6 7 7 6 6 6 6 6 6 4 4 3 3 3 3 2 1 0 0
0 0 0 0 1 1 2 2 2 5 9 8 5 4 3 3 3 4 5 4 3 2 3 5 6 7 8 8 9 8 9 9 8 5 4 4 5 5 5 4 3 3 3 3 3 3 2 1 0
0 0 0 0 1 1 1 1 2 5 9 9 8 6 3 3 4 5 5 4 4 5 7 8 9 8 8 9 10 11 11 9 6 4 3 3 4 4 3 3 3 3 3 3 3 3 3 1 0
0 0 0 0 0 0 1 2 3 5 7 8 8 6 4 4 7 8 7 7 7 8 11 12 11 10 10 10 10 11 11 8 5 3 3 3 3 3 3 3 3 3 3 3 3 3 3 2 1
0 0 0 0 0 0 1 2 3 4 6 6 6 6 6 8 10 11 11 10 9 10 13 13 12 11 11 11 10 10 10 8 5 4 4 4 4 3 3 3 3 3 3 3 3 3 3 3 3
0 0 0 0 0 0 1 2 3 4 6 6 6 6 8 12 14 14 13 11 9 9 11 11 11 11 10 9 8 8 8 6 5 4 4 4 4 4 4 4 4 4 3 3 3 3 3 3 3
0 0 0 0 0 0 0 1 1 3 6 8 7 6 10 15 16 15 13 8 6 7 8 9 9 9 8 6 5 6 6 5 4 4 3 3 4 5 5 6 6 5 5 4 4 3 3 4 5
0 0 0 0 0 0 0 0 1 3 6 9 9 8 12 16 16 15 12 8 6 6 7 9 10 9 8 6 5 6 6 6 6 5 4 4 5 6 7 7 6 7 8 8 6 5 4 6 7
0 0 0 0 0 0 0 0 2 3 6 8 9 9 12 15 16 14 11 8 6 5 7 10 12 11 9 8 9 10 8 7 7 6 6 6 7 7 7 7 6 7 10 11 10 8 7 8 9
0 0 0 0 0 0 0 0 1 4 6 9 9 10 12 15 16 14 11 9 6 5 7 11 13 13 11 11 12 12 10 9 8 7 7 8 8 8 8 8 7 8 11 12 12 10 9 9 9
0 0 0 0 0 0 0 0 1 4 7 8 9 10 11 15 15 14 13 11 7 5 7 11 13 13 12 12 12 12 11 10 9 9 9 9 9 9 10 10 10 11 13 12 11 9 8 7 7
0 0 0 0 0 0 0 0 1 4 6 7 9 10 11 15 15 14 13 11 8 7 9 13 14 13 12 11 11 12 11 10 10 10 11 11 11 11 12 13 13 13 13 12 10 8 7 7 6
0 0 0 0 0 0 0 0 1 3 4 6 9 10 12 15 16 14 11 10 8 8 10 14 16 14 11 9 10 12 11 10 11 11 12 13 14 13 12 13 14 13 11 11 11 9 8 7 6

GEFSSGP_con_probscp_372.txt.gz
Probability
5 3 1 1 1 0 0 0 0 0 0 1 0 0 0 0 0 0 0 0 0 0 0 4 11 14 10 7 7 8 8 7 5 3 2 4 5 4 2 1 0 0 0 0 0 0 0 0 0
4 2 1 1 0 0 0 0 0 0 1 1 1 0 0 0 0 0 0 0 0 0 0 5 11 13 9 7 8 8 8 7 5 3 2 3 4 3 2 1 0 0 0 0 0 0 0 0 0
4 2 2 2 1 1 1 1 0 1 2 2 1 0 0 0 0 0 0 0 0 0 1 6 12 11 8 8 8 8 8 7 5 4 2 2 2 1 1 0 0 0 0 0 0 0 0 0 0
3 2 2 2 1 2 2 1 1 2 3 3 2 1 1 1 1 0 0 0 0 0 1 5 10 10 8 8 9 8 8 6 5 4 3 2 1 0 0 0 0 1 1 1 0 0 0 0 0
1 1 1 1 1 2 2 1 1 2 3 3 3 3 3 4 3 1 0 0 0 0 0 3 8 10 8 7 8 9 7 5 4 4 3 1 1 0 0 0 0 1 2 1 0 0 0 0 0
1 0 0 0 0 1 1 0 1 2 3 3 3 3 4 6 5 2 0 0 0 0 0 2 7 9 8 7 8 8 6 5 5 5 3 1 0 0 0 0 0 1 1 1 0 0 1 1 0
1 0 0 0 0 0 0 1 2 2 3 3 3 4 5 6 5 2 0 0 0 0 0 1 4 7 7 7 8 8 6 6 7 7 6 3 1 1 1 0 0 1 1 0 0 0 1 1 1
1 0 0 0 0 0 1 2 2 1 2 3 3 4 5 5 4 1 0 0 0 0 0 0 1 2 4 5 6 6 6 7 7 8 7 5 3 2 1 0 0 1 1 1 1 1 1 1 0
1 0 0 0 0 0 1 2 2 1 1 3 4 5 5 4 3 1 0 0 0 0 0 0 0 1 2 2 2 3 5 5 5 5 5 4 2 1 1 0 0 0 1 2 2 2 2 1 0
1 0 0 0 0 0 1 2 2 1 1 3 5 6 5 4 2 1 0 0 0 0 0 0 0 0 1 1 0 1 2 2 2 2 3 3 1 1 1 0 0 0 0 1 2 2 2 1 0
0 1 1 1 1 0 0 1 1 1 1 4 6 7 6 4 2 1 0 0 0 0 0 0 0 0 0 0 0 0 0 0 1 2 3 2 2 1 1 0 0 0 0 0 1 1 1 1 1
1 1 2 2 1 0 0 0 1 1 3 4 5 6 6 4 2 1 0 0 0 0 0 0 0 0 0 0 0 0 0 0 1 2 3 3 2 1 1 1 1 1 1 0 0 0 0 0 0
0 1 1 1 0 0 0 0 1 2 3 3 4 4 4 4 2 1 0 0 0 0 0 0 0 0 0 0 0 0 0 0 0 2 3 3 3 1 1 2 2 2 2 1 1 0 0 0 0
0 0 0 0 0 0 0 0 1 1 2 2 3 3 3 3 2 1 0 0 0 0 0 0 0 0 0 0 1 1 0 0 0 2 3 3 3 3 3 3 3 3 3 3 2 1 1 0 0
0 0 0 0 0 0 0 0 0 1 2 2 3 3 3 3 2 1 0 0 0 0 0 0 0 1 1 1 2 2 1 1 1 1 2 3 3 3 3 3 3 3 3 2 2 2 1 0 0
0 0 0 0 0 0 0 0 0 1 2 2 2 3 3 1 1 0 0 0 0 0 0 1 1 2 2 3 3 3 2 2 1 1 1 1 2 3 3 3 3 2 1 1 1 1 1 0 0
0 0 0 0 0 0 0 0 0 0 1 1 1 2 2 1 0 0 0 0 0 0 1 2 3 3 4 4 4 3 2 1 1 0 0 0 1 3 3 3 3 1 0 0 1 1 1 0 0
0 0 0 0 0 0 0 0 0 0 0 0 0 1 1 0 0 0 1 1 0 1 1 3 3 4 4 4 4 3 2 1 0 0 0 0 1 2 3 3 3 1 1 1 1 2 1 1 1
0 0 0 0 0 0 0 0 0 0 0 0 0 0 0 1 1 1 2 2 1 2 3 3 3 3 4 3 3 3 3 1 1 1 1 0 0 1 3 3 3 3 2 2 2 2 3 2 2
0 0 0 0 0 0 0 0 0 0 0 0 0 0 1 2 2 2 2 2 2 3 3 3 3 3 3 4 4 4 3 2 1 1 0 0 0 1 2 3 3 3 3 3 3 3 3 3 3
0 0 0 0 0 0 0 0 1 1 1 1 0 0 1 3 4 3 2 2 2 2 2 2 2 2 3 4 5 4 3 1 1 0 0 0 1 1 3 3 3 3 3 3 3 3 4 4 4
0 0 0 0 0 0 0 0 1 2 3 2 1 1 2 3 4 2 1 1 1 1 1 1 1 1 2 3 4 4 3 1 0 0 1 1 2 3 3 3 3 2 2 2 2 3 4 4 4
0 0 0 0 0 0 0 0 1 2 3 3 3 3 3 4 4 2 1 1 1 1 1 1 0 0 1 2 3 3 3 1 0 1 2 2 2 2 2 2 1 1 1 1 1 1 3 4 4
0 0 0 0 0 0 0 0 0 1 2 2 3 4 3 3 3 2 2 2 1 2 3 3 2 1 2 3 4 4 4 3 1 1 2 2 1 1 1 1 1 1 0 0 0 0 1 3 3
0 0 0 0 0 0 0 0 0 0 1 2 2 3 2 1 2 2 3 3 2 3 5 6 6 5 4 5 5 5 5 4 3 2 1 1 0 0 1 1 3 3 2 1 0 0 1 2 3
0 0 0 0 0 0 0 0 0 0 1 1 2 3 2 1 1 1 3 4 4 5 6 7 9 8 6 5 5 4 3 3 3 2 1 0 1 1 3 4 5 6 5 4 2 2 3 4 5
0 0 0 0 0 0 0 0 0 0 0 1 3 5 4 1 0 1 3 5 5 6 6 6 7 7 5 4 4 3 2 2 2 1 0 0 1 3 5 5 5 6 7 7 6 5 7 8 8
0 0 0 0 0 0 0 0 0 0 1 2 3 4 4 2 1 1 3 4 4 5 5 4 4 4 4 3 3 3 3 2 2 2 2 2 2 4 5 4 3 5 7 8 8 8 9 10 10
0 0 0 0 0 0 0 0 0 1 2 3 3 3 3 3 2 2 2 3 3 4 4 5 4 4 5 4 4 4 4 4 4 5 5 4 3 4 3 3 2 2 5 7 9 9 10 10 10
0 0 0 0 0 0 0 0 0 1 2 3 3 3 3 3 3 2 1 2 2 3 5 6 6 6 6 6 5 5 5 5 6 7 7 5 3 2 2 2 1 1 4 7 9 9 10 10 10